TimePST,TemperatureF,Dew PointF,Humidity,Sea Level PressureIn,VisibilityMPH,Wind Direction,Wind SpeedMPH,Gust SpeedMPH,PrecipitationIn,Events,Conditions,WindDirDegrees,DateUTC
12:53 AM,39.9,37.0,89,30.33,6.0,ENE,10.4,-,N/A,,Overcast,60,2012-11-15 08:53:00
1:53 AM,39.0,36.0,89,30.33,7.0,NE,10.4,-,N/A,,Overcast,50,2012-11-15 09:53:00
2:09 AM,39.2,35.6,87,30.32,6.0,NE,9.2,-,N/A,,Overcast,50,2012-11-15 10:09:00
2:53 AM,37.9,36.0,93,30.31,10.0,NNE,8.1,-,N/A,,Overcast,30,2012-11-15 10:53:00
3:53 AM,37.9,35.1,89,30.30,10.0,NE,9.2,-,N/A,,Overcast,40,2012-11-15 11:53:00
4:24 AM,37.4,35.6,93,30.29,10.0,NNE,8.1,-,N/A,,Overcast,30,2012-11-15 12:24:00
4:53 AM,37.9,35.1,89,30.30,10.0,NNE,10.4,-,N/A,,Overcast,30,2012-11-15 12:53:00
5:53 AM,37.9,35.1,89,30.29,10.0,NNE,6.9,-,N/A,,Overcast,20,2012-11-15 13:53:00
6:53 AM,37.9,35.1,89,30.27,10.0,NE,5.8,-,N/A,,Overcast,40,2012-11-15 14:53:00
7:06 AM,37.4,35.6,93,30.26,10.0,NE,6.9,-,N/A,,Overcast,40,2012-11-15 15:06:00
7:53 AM,37.9,35.1,89,30.27,10.0,NNE,5.8,-,N/A,,Overcast,30,2012-11-15 15:53:00
8:46 AM,39.2,35.6,87,30.24,10.0,NNE,5.8,-,N/A,,Overcast,20,2012-11-15 16:46:00
8:53 AM,39.0,35.1,86,30.25,10.0,NNE,4.6,-,N/A,,Overcast,20,2012-11-15 16:53:00
9:53 AM,39.9,36.0,86,30.23,10.0,North,4.6,-,N/A,,Overcast,10,2012-11-15 17:53:00
10:31 AM,41.0,35.6,81,30.20,10.0,North,4.6,-,N/A,,Overcast,10,2012-11-15 18:31:00
10:53 AM,41.0,36.0,82,30.20,10.0,NNW,3.5,-,N/A,,Overcast,340,2012-11-15 18:53:00
11:53 AM,42.1,37.0,82,30.18,10.0,Variable,3.5,-,N/A,,Overcast,0,2012-11-15 19:53:00
12:53 PM,42.1,37.0,82,30.16,10.0,Calm,Calm,-,N/A,,Overcast,0,2012-11-15 20:53:00
1:53 PM,43.0,37.0,80,30.14,10.0,North,4.6,-,N/A,,Overcast,10,2012-11-15 21:53:00
2:53 PM,43.0,37.0,80,30.12,10.0,North,3.5,-,N/A,,Overcast,10,2012-11-15 22:53:00
3:53 PM,42.1,37.0,82,30.12,10.0,Calm,Calm,-,N/A,,Overcast,0,2012-11-15 23:53:00
4:53 PM,42.1,37.0,82,30.10,10.0,Calm,Calm,-,N/A,,Overcast,0,2012-11-16 00:53:00
5:53 PM,41.0,37.0,86,30.09,10.0,SW,4.6,-,N/A,,Overcast,220,2012-11-16 01:53:00
6:37 PM,41.0,37.4,87,30.07,10.0,SW,3.5,-,N/A,,Overcast,220,2012-11-16 02:37:00
6:53 PM,41.0,37.0,86,30.08,10.0,SW,4.6,-,N/A,,Overcast,230,2012-11-16 02:53:00
7:53 PM,39.9,37.9,93,30.07,10.0,SSW,3.5,-,N/A,,Overcast,210,2012-11-16 03:53:00
8:53 PM,39.9,37.9,93,30.06,10.0,WSW,3.5,-,N/A,,Overcast,240,2012-11-16 04:53:00
9:53 PM,39.9,37.9,93,30.05,10.0,Calm,Calm,-,N/A,,Overcast,0,2012-11-16 05:53:00
10:53 PM,39.9,37.9,93,30.04,9.0,Calm,Calm,-,N/A,,Overcast,0,2012-11-16 06:53:00
11:53 PM,39.9,37.9,93,30.05,10.0,Calm,Calm,-,N/A,,Overcast,0,2012-11-16 07:53:00